Location: São Paulo
(23.5507°S, 46.6334°W)
Time: 06:03:28
(UTC-03:00)

A-11 Canister half - All Passes

Search period start: 16 February 2026 00:00
Search period end: 26 February 2026 00:00
Orbit: 1512 x 1687 km, 47.2° (Epoch: 15 February)

Date Brightness Start Highest point End Pass type
(mag) Time Alt. Az. Time Alt. Az. Time Alt. Az.
16 Feb - 07:12:21 10° NNW 07:21:16 55° NE 07:30:15 10° SE daylight
16 Feb - 09:17:39 10° WNW 09:26:14 42° SW 09:35:03 10° SE daylight
16 Feb - 11:27:51 10° SW 11:33:42 18° SSW 11:39:40 10° SSE daylight
16 Feb - 13:36:03 10° SSW 13:42:36 20° SSE 13:49:17 10° ESE daylight
16 Feb - 15:40:17 10° SW 15:49:45 51° SE 15:59:28 10° ENE daylight
16 Feb - 17:45:23 10° WSW 17:54:42 47° NW 18:04:13 10° NNE daylight
17 Feb - 06:49:28 10° NNW 06:58:16 50° NE 07:07:07 10° ESE daylight
17 Feb - 08:54:26 10° WNW 09:03:08 45° SW 09:12:02 10° SE daylight
17 Feb - 11:04:29 10° SW 11:10:27 18° SSW 11:16:32 10° SSE daylight
17 Feb - 13:13:00 10° SSW 13:19:21 19° SSE 13:25:49 10° ESE daylight
17 Feb - 15:17:17 10° SW 15:26:38 48° SE 15:36:13 10° ENE daylight
17 Feb - 17:22:13 10° WSW 17:31:39 51° NW 17:41:19 10° NNE daylight
18 Feb - 06:26:37 10° NNW 06:35:17 46° NE 06:43:58 10° ESE daylight
18 Feb - 08:31:15 10° WNW 08:40:03 48° SW 08:49:01 10° SE daylight
18 Feb - 10:41:07 10° SW 10:47:11 19° SSW 10:53:24 10° SSE daylight
18 Feb - 12:49:57 10° SSW 12:56:06 18° SSE 13:02:21 10° SE daylight
18 Feb - 14:54:18 10° SW 15:03:30 45° SE 15:12:56 10° ENE daylight
18 Feb - 16:59:06 10° SW 17:08:37 55° NW 17:18:22 10° NNE daylight
19 Feb - 06:03:45 10° NNW 06:12:18 43° NE 06:20:50 10° ESE daylight
19 Feb - 08:08:04 10° WNW 08:16:58 51° SW 08:26:01 10° SE daylight
19 Feb - 10:17:43 10° WSW 10:23:58 19° SSW 10:30:18 10° SSE daylight
19 Feb - 12:26:52 10° SSW 12:32:50 18° SSE 12:38:53 10° SE daylight
19 Feb - 14:31:19 10° SW 14:40:22 42° SE 14:49:39 10° ENE daylight
19 Feb - 16:35:59 10° SW 16:45:34 59° NW 16:55:26 10° NNE daylight
20 Feb - 05:40:56 10° NNW 05:49:18 39° NE 05:57:39 10° ESE daylight
20 Feb - 07:44:55 10° WNW 07:53:53 54° SW 08:03:00 10° SE daylight
20 Feb - 09:54:21 10° WSW 10:00:44 20° SSW 10:07:14 10° SSE daylight
20 Feb - 12:03:47 10° SSW 12:09:34 17° S 12:15:26 10° SE daylight
20 Feb - 14:08:20 10° SSW 14:17:14 39° SE 14:26:22 10° E daylight
20 Feb - 16:12:53 10° SW 16:22:31 64° NW 16:32:27 10° NNE daylight
20 Feb - 18:23:56 10° WNW 18:26:40 11° WNW 18:29:27 10° NW daylight
21 Feb - 05:18:08 10° N 05:26:19 36° NE 05:34:27 10° ESE visible
21 Feb - 07:21:46 10° WNW 07:30:49 58° SW 07:40:00 10° SE daylight
21 Feb - 09:30:58 10° WSW 09:37:31 21° SSW 09:44:09 10° SSE daylight
21 Feb - 11:40:41 10° SSW 11:46:17 17° S 11:51:59 10° SE daylight
21 Feb - 13:45:21 10° SSW 13:54:05 37° SSE 14:03:02 10° E daylight
21 Feb - 15:49:48 10° SW 15:59:29 69° NW 16:09:27 10° NNE daylight
21 Feb - 17:59:38 10° W 18:03:39 13° NW 18:07:43 10° NNW daylight
22 Feb - 04:55:23 10° N 05:03:20 33° NE 05:11:15 10° ESE visible
22 Feb - 06:58:38 10° WNW 07:07:46 62° SW 07:16:59 10° SE daylight
22 Feb - 09:07:36 10° WSW 09:14:18 22° SSW 09:21:07 10° SSE daylight
22 Feb - 11:17:34 10° SSW 11:23:01 16° S 11:28:34 10° SE daylight
22 Feb - 13:22:22 10° SSW 13:30:56 35° SSE 13:39:42 10° E daylight
22 Feb - 15:26:43 10° SW 15:36:26 74° NW 15:46:26 10° NE daylight
22 Feb - 17:35:44 10° W 17:40:38 15° NW 17:45:36 10° NNW daylight
23 Feb - 04:32:39 10° N 04:40:21 30° NE 04:48:00 10° ESE visible
23 Feb - 06:35:31 10° WNW 06:44:43 67° SW 06:53:57 10° SE daylight
23 Feb - 08:44:13 10° WSW 08:51:05 22° SSW 08:58:04 10° SSE daylight
23 Feb - 10:54:25 10° SSW 10:59:45 16° S 11:05:09 10° SE daylight
23 Feb - 12:59:24 10° SSW 13:07:46 33° SSE 13:16:22 10° E daylight
23 Feb - 15:03:40 10° SW 15:13:23 79° NW 15:23:25 10° NE daylight
23 Feb - 17:12:01 10° W 17:17:36 17° NW 17:23:18 10° NNW daylight
24 Feb - 04:09:56 10° N 04:17:22 27° NE 04:24:43 10° ESE visible
24 Feb - 06:12:25 10° NW 06:21:40 72° SW 06:30:57 10° SE daylight
24 Feb - 08:20:51 10° WSW 08:27:53 24° SSW 08:35:03 10° SSE daylight
24 Feb - 10:31:15 10° SSW 10:36:28 16° S 10:41:46 10° SE daylight
24 Feb - 12:36:25 10° SSW 12:44:37 31° SSE 12:53:00 10° E daylight
24 Feb - 14:40:37 10° SW 14:50:20 84° NW 15:00:22 10° NE daylight
24 Feb - 16:48:26 10° W 16:54:36 19° NW 17:00:52 10° NNW daylight
25 Feb - 03:47:16 10° N 03:54:23 25° NE 04:01:25 10° ESE visible
25 Feb - 05:49:20 10° NW 05:58:37 77° SW 06:07:56 10° SE daylight
25 Feb - 07:57:29 10° WSW 08:04:42 25° SSW 08:12:01 10° SSE daylight
25 Feb - 10:08:04 10° SSW 10:13:12 15° S 10:18:24 10° SE daylight
25 Feb - 12:13:26 10° SSW 12:21:27 29° SSE 12:29:37 10° E daylight
25 Feb - 14:17:35 10° SW 14:27:16 89° NW 14:37:17 10° NE daylight
25 Feb - 16:24:56 10° W 16:31:34 21° NW 16:38:22 10° N daylight
